Wind_Speed
56 57 57 56 55 55 54 54 54 53 52 51 50 50 51 51 51 51 50 50 49 49 48 48 47 46 45 44 43 43 42 42 42 41 41 40 40 39
57 56 57 57 57 56 55 55 55 54 54 52 51 51 51 51 51 51 51 51 50 50 49 48 48 47 47 46 45 44 44 43 42 42 42 42 42 41
57 57 57 58 58 57 57 57 55 54 54 53 52 52 52 52 52 52 52 51 51 51 51 51 50 49 48 47 47 46 45 45 45 44 43 43 42 42
58 58 58 57 58 58 58 58 56 54 54 53 53 53 53 53 52 53 52 51 51 52 52 52 51 51 50 50 49 48 48 47 47 46 45 45 44 44
58 59 59 58 57 57 58 58 58 56 55 54 53 53 53 53 53 53 53 52 52 52 53 53 52 52 52 51 51 50 49 48 48 48 47 46 46 46
57 57 57 57 56 56 56 56 57 56 55 55 54 53 53 53 53 53 53 52 52 52 53 54 54 53 53 52 51 51 50 49 49 48 48 47 47 47
55 56 56 55 56 55 55 55 56 56 56 55 54 54 53 53 53 53 53 53 52 52 52 54 54 54 54 53 52 51 51 50 49 49 49 49 48 48
53 53 54 55 55 55 55 55 54 54 54 54 53 53 52 52 52 52 53 54 53 53 53 53 54 54 54 53 52 51 51 51 51 50 50 50 50 49
51 50 51 52 53 53 53 54 53 52 52 52 51 51 51 52 52 52 53 53 53 52 54 54 54 54 54 54 53 53 52 52 52 52 51 51 51 51
49 49 50 50 51 52 52 52 52 51 51 50 50 50 52 52 52 52 53 53 53 52 53 54 54 54 55 54 54 54 53 53 53 52 52 52 52 52
47 47 47 48 49 50 50 50 50 50 51 51 51 51 51 51 51 52 53 54 53 52 52 52 52 53 53 53 53 54 54 53 53 53 53 53 52 52
46 46 46 47 47 47 48 49 49 49 50 50 50 50 51 51 50 51 52 52 53 52 52 52 52 52 52 52 51 52 52 52 52 52 52 52 51 51
43 44 44 45 45 45 45 46 47 47 49 49 49 49 50 49 49 50 50 51 52 51 51 51 51 51 51 50 50 51 51 51 51 51 51 52 52 51
40 41 42 42 42 43 43 44 45 46 46 47 47 47 48 48 48 48 48 49 49 49 49 50 50 49 48 48 49 49 49 50 50 50 50 51 51 51
37 38 39 40 40 41 41 42 43 43 44 44 45 45 45 46 46 46 46 46 47 47 47 48 48 48 47 48 48 47 47 47 48 48 49 49 50 50
37 37 37 38 39 39 40 40 41 42 42 43 43 43 44 44 44 44 45 45 45 46 47 47 48 47 46 46 46 45 46 46 46 46 46 47 47 47
35 36 36 36 37 37 38 39 39 39 40 41 41 41 41 42 43 43 44 44 44 44 45 45 45 45 45 44 44 43 43 43 43 43 44 44 45 45
34 35 34 34 34 34 35 36 37 38 38 39 39 40 40 41 41 42 42 42 42 42 42 43 43 43 42 42 42 42 42 42 41 41 42 42 42 44
34 34 34 34 33 33 33 33 34 35 36 36 37 37 38 39 39 39 40 41 42 42 42 42 42 42 41 40 40 41 40 40 40 40 41 41 41 42
32 33 33 33 33 32 32 33 33 33 34 35 35 36 36 37 37 38 38 39 39 39 39 39 40 39 38 38 38 38 39 38 38 38 39 39 40 41
31 32 32 32 32 32 32 32 32 32 33 33 34 34 35 35 36 36 36 37 37 37 37 37 38 38 37 37 37 37 37 38 38 37 37 38 39 39
30 31 31 30 31 31 32 32 32 32 32 32 33 34 34 34 34 34 35 34 34 35 35 35 35 36 36 36 36 36 37 37 37 36 36 36 36 36
29 29 29 29 30 30 31 31 32 32 32 32 32 32 32 32 33 33 33 34 34 34 34 34 35 35 35 35 36 36 36 36 36 35 34 34 34 34
Wind_Direction
257 256 256 256 257 258 258 258 258 257 255 254 254 253 253 253 253 253 252 252 253 253 253 254 255 256 257 259 261 263 264 266 267 268 269 271 272 272
257 256 256 256 256 257 257 257 258 257 256 254 254 253 253 253 252 252 252 252 252 252 253 253 254 255 257 259 260 262 264 265 266 267 268 269 271 271
257 257 257 256 255 256 256 256 257 257 257 255 254 253 253 252 252 252 252 252 252 253 253 253 254 255 257 259 260 261 263 264 265 266 268 269 270 272
257 257 257 257 256 255 255 255 255 255 256 255 254 253 252 253 253 253 252 252 252 253 253 254 255 255 256 257 259 261 262 264 265 266 267 268 270 271
257 257 257 257 256 255 254 254 253 253 253 254 254 253 252 253 253 253 253 253 253 253 253 254 255 255 256 257 258 260 261 263 264 265 265 267 268 270
258 257 256 256 255 255 254 253 253 252 252 253 253 252 252 253 254 253 252 252 253 254 254 254 254 255 256 257 258 260 261 262 263 264 266 267 269 271
256 256 255 254 254 253 253 252 251 251 251 251 252 252 252 252 253 253 252 252 252 253 254 255 255 255 256 257 258 259 260 262 263 264 266 268 269 271
256 255 254 253 253 252 251 251 250 250 250 250 251 251 251 251 252 252 252 251 252 254 255 255 255 255 256 256 258 259 260 261 263 265 266 268 269 270
255 254 254 253 252 252 251 250 249 249 250 250 250 251 251 251 251 251 251 251 252 253 255 255 255 254 255 256 257 259 260 262 263 265 266 268 269 270
255 255 254 252 251 250 250 250 250 250 250 250 251 251 251 251 251 251 251 252 252 253 255 256 255 255 255 256 258 259 260 262 264 266 267 268 269 270
254 254 253 252 251 250 250 250 250 250 250 250 250 250 251 251 251 251 252 252 252 253 255 255 255 254 254 256 258 259 260 262 264 266 266 267 268 269
253 253 253 253 251 251 249 249 249 249 249 249 249 249 250 251 251 252 252 253 252 253 254 255 255 254 254 256 258 259 260 262 264 265 266 267 268 269
253 252 252 252 252 251 250 249 249 248 248 248 248 248 250 250 251 251 252 252 253 253 254 254 255 254 255 256 258 259 260 262 263 264 266 267 268 269
253 251 251 250 250 250 250 249 248 248 248 247 248 248 249 250 251 252 252 254 253 253 253 254 254 254 255 256 257 259 260 262 263 264 265 268 269 270
252 252 250 249 249 249 250 249 249 247 247 247 248 248 249 250 250 251 251 252 252 252 253 254 254 254 256 257 258 260 261 262 263 264 266 268 269 270
251 250 249 248 249 249 249 249 249 248 248 248 248 249 250 249 249 250 251 251 252 252 253 254 254 254 256 257 259 260 262 263 264 265 266 268 269 269
248 247 246 247 247 248 250 249 248 248 248 249 248 248 249 248 249 250 251 251 252 253 253 253 254 254 256 258 259 261 262 264 264 265 266 267 268 269
247 246 245 245 247 248 248 247 247 247 247 247 246 246 246 247 247 249 250 251 251 252 253 253 254 254 256 257 260 261 263 264 265 266 266 268 269 270
246 245 244 244 245 245 245 245 245 245 244 243 243 244 244 245 247 248 249 250 252 252 253 253 254 255 256 258 259 260 262 263 265 266 267 268 269 270
244 244 244 244 244 244 244 243 243 243 242 242 243 244 245 246 247 248 250 251 251 251 252 253 254 255 257 258 258 260 261 263 264 266 268 269 270 271
245 244 244 243 243 243 241 241 241 242 242 243 244 246 247 248 249 249 250 250 250 251 252 253 253 255 256 258 258 259 261 263 265 267 269 270 271 273
244 244 243 243 242 241 240 240 241 241 243 245 245 246 247 247 248 248 250 250 251 252 253 253 254 254 256 259 259 260 262 263 265 267 269 270 271 272
244 243 243 243 242 239 239 239 240 242 244 245 245 246 248 247 248 248 249 250 251 251 252 253 253 255 257 259 260 261 262 264 265 266 270 271 272 272
Height
5638 5641 5644 5647 5650 5653 5656 5659 5662 5667 5672 5676 5679 5682 5684 5688 5691 5695 5698 5702 5705 5709 5713 5716 5719 5721 5723 5726 5728 5730 5731 5733 5734 5735 5736 5736 5736 5736
5621 5625 5628 5631 5634 5637 5641 5644 5647 5650 5656 5661 5664 5667 5670 5673 5677 5680 5684 5688 5692 5695 5699 5703 5706 5709 5711 5714 5716 5718 5720 5721 5722 5723 5724 5725 5725 5725
5605 5608 5611 5615 5618 5621 5625 5628 5631 5634 5639 5645 5648 5652 5655 5659 5662 5666 5670 5674 5678 5682 5685 5689 5693 5696 5699 5701 5704 5706 5708 5709 5711 5711 5712 5713 5714 5714
5589 5592 5595 5598 5601 5605 5608 5612 5616 5619 5623 5628 5633 5637 5640 5644 5648 5652 5656 5660 5664 5668 5671 5675 5679 5683 5686 5689 5691 5693 5695 5697 5698 5699 5700 5701 5702 5702
5572 5575 5578 5581 5585 5588 5592 5595 5600 5604 5608 5612 5617 5622 5625 5629 5633 5637 5641 5645 5650 5653 5657 5661 5665 5668 5672 5675 5677 5680 5682 5684 5686 5687 5687 5688 5689 5690
5555 5558 5561 5565 5568 5572 5575 5579 5583 5588 5592 5596 5602 5606 5611 5614 5618 5622 5626 5631 5635 5639 5642 5646 5650 5654 5657 5661 5664 5667 5668 5670 5671 5673 5675 5676 5676 5677
5539 5542 5545 5548 5551 5555 5559 5563 5567 5571 5576 5581 5586 5591 5595 5599 5604 5607 5611 5616 5620 5624 5627 5632 5636 5640 5642 5646 5649 5652 5654 5656 5658 5659 5661 5662 5663 5664
5522 5525 5528 5532 5535 5539 5543 5547 5551 5556 5561 5566 5571 5575 5580 5584 5588 5592 5596 5601 5607 5611 5613 5617 5620 5624 5627 5631 5634 5637 5639 5642 5644 5646 5647 5648 5649 5650
5506 5510 5513 5516 5519 5523 5527 5531 5536 5541 5546 5551 5555 5560 5565 5570 5573 5578 5581 5585 5591 5595 5598 5602 5606 5609 5613 5616 5619 5622 5625 5627 5629 5631 5633 5634 5635 5635
5491 5494 5497 5501 5504 5508 5512 5517 5522 5527 5532 5536 5542 5546 5549 5553 5558 5562 5566 5571 5576 5580 5583 5587 5591 5595 5598 5601 5604 5607 5610 5612 5614 5616 5618 5619 5620 5620
5478 5480 5483 5487 5491 5494 5498 5503 5508 5512 5516 5521 5526 5530 5534 5538 5542 5547 5551 5556 5561 5565 5569 5572 5576 5580 5583 5586 5589 5592 5594 5597 5599 5601 5602 5603 5604 5605
5465 5468 5471 5474 5476 5479 5484 5489 5494 5498 5502 5507 5511 5516 5520 5524 5528 5532 5537 5541 5546 5551 5555 5558 5561 5565 5569 5572 5574 5577 5579 5582 5584 5585 5587 5588 5589 5589
5451 5455 5458 5461 5463 5467 5470 5475 5480 5484 5488 5493 5497 5502 5506 5510 5514 5518 5522 5526 5531 5536 5541 5543 5547 5550 5554 5558 5560 5562 5565 5567 5569 5570 5572 5573 5573 5574
5439 5442 5445 5448 5451 5455 5458 5462 5466 5470 5474 5479 5484 5488 5492 5497 5500 5504 5508 5512 5516 5521 5525 5529 5533 5536 5540 5543 5546 5549 5550 5552 5554 5556 5557 5558 5558 5558
5427 5430 5433 5436 5439 5443 5446 5450 5453 5457 5461 5466 5471 5475 5479 5483 5487 5491 5494 5498 5502 5506 5511 5514 5518 5522 5525 5529 5532 5534 5536 5538 5539 5541 5542 5543 5543 5544
5416 5419 5422 5425 5428 5432 5435 5439 5442 5446 5450 5454 5459 5463 5466 5470 5474 5478 5482 5485 5489 5493 5496 5500 5504 5508 5511 5514 5517 5520 5522 5524 5526 5527 5528 5529 5529 5529
5406 5409 5412 5415 5418 5421 5424 5428 5431 5435 5439 5442 5446 5450 5454 5458 5462 5466 5469 5473 5477 5481 5484 5487 5490 5494 5497 5501 5503 5506 5508 5510 5512 5513 5514 5515 5515 5515
5395 5398 5402 5405 5408 5411 5414 5417 5421 5424 5428 5431 5435 5439 5443 5447 5450 5454 5457 5461 5465 5468 5472 5475 5478 5481 5484 5487 5490 5493 5495 5497 5499 5500 5501 5502 5502 5502
5385 5389 5392 5396 5398 5401 5404 5408 5411 5414 5418 5421 5425 5429 5432 5436 5439 5443 5446 5449 5453 5456 5459 5463 5466 5469 5472 5476 5478 5480 5483 5484 5486 5487 5488 5489 5490 5490
5376 5379 5383 5386 5389 5392 5395 5398 5401 5404 5408 5412 5415 5419 5422 5425 5429 5432 5435 5438 5442 5445 5448 5451 5454 5457 5461 5464 5466 5468 5470 5472 5473 5475 5476 5476 5477 5476
5367 5370 5373 5376 5379 5382 5385 5389 5392 5395 5399 5402 5406 5409 5412 5415 5418 5422 5425 5427 5431 5434 5437 5440 5443 5446 5449 5451 5454 5456 5458 5460 5461 5463 5464 5464 5464 5464
5358 5360 5364 5367 5370 5373 5376 5380 5383 5386 5390 5393 5397 5400 5403 5406 5409 5412 5415 5418 5421 5424 5427 5430 5432 5435 5438 5440 5443 5445 5447 5448 5449 5450 5451 5452 5452 5453
5349 5352 5355 5358 5361 5364 5367 5371 5374 5378 5381 5385 5388 5391 5394 5397 5400 5402 5405 5408 5411 5414 5417 5419 5422 5425 5427 5430 5432 5434 5436 5437 5438 5439 5440 5440 5441 5441